Oak Ridge, TN

5:35 AM EDT on July 26, 2017 (GMT -0400)
Oak Ridge

Weather History for KOQT - February, 2013

Change the Weather History Date:

Wednesday, February 13, 2013

  Actual Average (KTYS) Record (KTYS)
Temperature  
Mean Temperature 42 °F -  
Max Temperature 46 °F 49 °F 74 °F (1949)
Min Temperature 39 °F 31 °F -7 °F (1899)
Degree Days  
Heating Degree Days 22    
Moisture  
Dew Point 39 °F    
Average Humidity 84    
Maximum Humidity 93    
Minimum Humidity 65    
Precipitation  
Precipitation 0.29 in - - ()
Sea Level Pressure  
Sea Level Pressure 29.80 in    
Wind  
Wind Speed 2 mph (West)    
Max Wind Speed 12 mph    
Max Gust Speed 24 mph    
Visibility 6 miles    
Events Rain    
Averages and records for this station are not official NWS values.
T = Trace of Precipitation, MM = Missing Value Source: NWS Daily Summary

Daily Weather History Graph

Daily Weather History Graph

Search for Another Location

Airport or City:

Trip Planner

Search our weather history database for the weather conditions in past years. The results will help you decide how hot, cold, wet, or windy it might be!

Date:

Astronomy

Feb. 13, 2013 Rise Set
Actual Time 7:26 AM EST 6:16 PM EST
Civil Twilight 6:59 AM EST 6:42 PM EST
Nautical Twilight 6:29 AM EST 7:13 PM EST
Astronomical Twilight 5:59 AM EST 7:42 PM EST
Moon 9:03 AM EST (2/13) 10:08 PM EST (2/13)
Length of Visible Light 11h 43m
Length of Day
10h 50m
Waxing Crescent, 13% of the Moon is Illuminated
Feb 13
Waxing Crescent
Feb 17
First Quarter
Feb 25
Full
Mar 4
Last Quarter
Mar 11
New

Hourly Weather History & Observations

Time (EST) Temp. Windchill Dew Point Humidity Pressure Visibility Wind Dir Wind Speed Gust Speed Precip Events Conditions
12:53 AM 44.1 °F - 39.0 °F 82% 29.87 in 10.0 mi Calm Calm - N/A   Overcast
1:53 AM 44.1 °F - 39.0 °F 82% 29.84 in 10.0 mi Calm Calm - 0.00 in Rain Light Rain
2:53 AM 44.1 °F - 39.9 °F 85% 29.81 in 10.0 mi Calm Calm - 0.02 in Rain Light Rain
3:53 AM 43.0 °F - 39.9 °F 89% 29.78 in 6.0 mi Calm Calm - 0.06 in Rain Light Rain
4:53 AM 42.1 °F - 39.9 °F 92% 29.76 in 9.0 mi Calm Calm - 0.03 in Rain Light Rain
5:11 AM 42.8 °F - 39.2 °F 87% 29.74 in 10.0 mi Calm Calm - 0.00 in   Overcast
5:30 AM 42.8 °F 41.1 °F 39.2 °F 87% 29.74 in 4.0 mi ENE 3.5 mph - 0.00 in Rain Light Rain
5:53 AM 42.1 °F 39.2 °F 39.0 °F 89% 29.74 in 3.0 mi ENE 4.6 mph - 0.01 in Rain Light Rain
6:25 AM 42.8 °F - 39.2 °F 87% 29.72 in 2.5 mi Calm Calm - 0.01 in Rain Light Rain
6:53 AM 42.1 °F - 39.9 °F 92% 29.73 in 2.5 mi Calm Calm - 0.03 in Rain Light Rain
7:01 AM 42.8 °F - 39.2 °F 87% 29.72 in 4.0 mi Calm Calm - 0.01 in Rain Light Rain
7:53 AM 42.1 °F - 39.9 °F 92% 29.73 in 2.0 mi Calm Calm - 0.04 in Rain Light Rain
7:58 AM 42.8 °F - 39.2 °F 87% 29.72 in 1.8 mi Calm Calm - 0.00 in Rain Light Rain
8:14 AM 42.8 °F - 41.0 °F 93% 29.72 in 2.0 mi Calm Calm - 0.00 in Rain Light Rain
8:53 AM 43.0 °F - 39.9 °F 89% 29.73 in 2.0 mi Calm Calm - 0.01 in   Overcast
9:00 AM 42.8 °F - 39.2 °F 87% 29.72 in 1.8 mi Calm Calm - N/A   Overcast
9:53 AM 43.0 °F - 41.0 °F 93% 29.75 in 1.2 mi Calm Calm - 0.02 in Rain Light Rain
10:20 AM 44.6 °F - 41.0 °F 87% 29.72 in 1.8 mi Calm Calm - 0.01 in Rain Light Rain
10:48 AM 44.6 °F 43.1 °F 42.8 °F 93% 29.72 in 3.0 mi Variable 3.5 mph - 0.03 in Rain Light Rain
10:53 AM 44.1 °F 40.8 °F 42.1 °F 93% 29.75 in 6.0 mi Variable 5.8 mph - 0.03 in Rain Light Rain
11:07 AM 44.6 °F 42.2 °F 42.8 °F 93% 29.72 in 1.8 mi WSW 4.6 mph - 0.00 in   Overcast
11:22 AM 44.6 °F 42.2 °F 42.8 °F 93% 29.72 in 2.5 mi SW 4.6 mph - 0.01 in   Overcast
11:30 AM 44.6 °F - 42.8 °F 93% 29.72 in 4.0 mi Calm Calm - 0.01 in   Overcast
11:53 AM 45.0 °F 41.2 °F 42.1 °F 90% 29.73 in 5.0 mi Variable 6.9 mph - 0.01 in   Overcast
12:15 PM 44.6 °F 41.4 °F 42.8 °F 93% 29.72 in 1.8 mi West 5.8 mph - 0.01 in Rain Light Rain
12:24 PM 44.6 °F 40.7 °F 42.8 °F 93% 29.72 in 3.0 mi WSW 6.9 mph - 0.01 in Rain Light Rain
12:53 PM 45.0 °F 41.2 °F 43.0 °F 93% 29.74 in 9.0 mi SW 6.9 mph - 0.02 in Rain Light Rain
1:01 PM 46.4 °F 42.4 °F 42.8 °F 87% 29.72 in 10.0 mi SW 8.1 mph - 0.00 in Rain Light Rain
1:15 PM 46.4 °F 42.4 °F 44.6 °F 93% 29.72 in 10.0 mi SW 8.1 mph - 0.00 in   Overcast
1:31 PM 46.4 °F 41.5 °F 42.8 °F 87% 29.73 in 4.0 mi West 10.4 mph 17.3 mph 0.01 in Rain Light Rain
1:38 PM 46.4 °F 41.5 °F 42.8 °F 87% 29.73 in 10.0 mi West 10.4 mph 24.2 mph 0.01 in Rain Light Rain
1:53 PM 46.9 °F - 41.0 °F 80% 29.75 in 10.0 mi West 11.5 mph 21.9 mph 0.01 in Rain Light Rain
2:53 PM 46.0 °F 41.4 °F 37.9 °F 73% 29.78 in 10.0 mi West 9.2 mph 16.1 mph 0.00 in   Mostly Cloudy
3:15 PM 44.6 °F 43.1 °F 35.6 °F 71% 29.79 in 10.0 mi Variable 3.5 mph - N/A   Mostly Cloudy
3:53 PM 42.1 °F 36.6 °F 33.1 °F 70% 29.85 in 10.0 mi NNW 9.2 mph 17.3 mph N/A   Overcast
4:53 PM 42.1 °F - 32.0 °F 67% 29.89 in 10.0 mi Calm Calm - N/A   Mostly Cloudy
5:50 PM 41.0 °F 39.0 °F 30.2 °F 65% 29.90 in 10.0 mi North 3.5 mph - N/A   Overcast
5:53 PM 41.0 °F - 32.0 °F 70% 29.93 in 10.0 mi Calm Calm - N/A   Overcast
6:53 PM 41.0 °F - 32.0 °F 70% 29.95 in 10.0 mi Calm Calm - N/A   Overcast
7:48 PM 39.2 °F - 32.0 °F 75% 29.95 in 10.0 mi Calm Calm - N/A   Mostly Cloudy
7:53 PM 39.0 °F - 32.0 °F 76% 29.98 in 10.0 mi Calm Calm - N/A   Mostly Cloudy
8:53 PM 39.0 °F - 32.0 °F 76% 29.99 in 10.0 mi Calm Calm - N/A   Overcast
9:53 PM 39.0 °F 36.8 °F 32.0 °F 76% 30.00 in 10.0 mi West 3.5 mph - N/A   Overcast
10:53 PM 39.0 °F - 32.0 °F 76% 30.01 in 10.0 mi Calm Calm - N/A   Overcast
11:53 PM 39.0 °F - 32.0 °F 76% 30.03 in 10.0 mi Calm Calm - N/A   Overcast